Regional Weather Roundup
Issued by NWS State College, PA

Home | Current Version | Previous Version | Graphics & Text | Print | Product List | Glossary On
Versions: 1 2 3 4 5 6 7 8 9 10 11 12 13 14 15 16 17 18 19 20 21 22 23 24 25 26 27 28 29 30 31 32 33 34 35 36 37 38 39 40 41 42 43 44 45 46 47 48 49 50
000
ASUS41 KCTP 292003
RWRCTP

REGIONAL WEATHER ROUNDUP
NATIONAL WEATHER SERVICE STATE COLLEGE PA
400 PM EDT FRI APR 29 2016

Note: "fair" indicates few or no clouds below 12,000 feet with no
significant weather and/or obstructions to visibility.

* = STATION THAT DOES NOT REPORT PRECIPITATION /E.G. RAIN...SNOW...ETC/
    THUNDER OR FOG.

PAZ002>004-007>009-013>016-020>023-029>032-292100-
WESTERN PENNSYLVANIA

CITY           SKY/WX    TMP DP  RH WIND       PRES   REMARKS
ERIE           CLOUDY    43  38  82 N8        30.07R HAZE
MEADVILLE      CLOUDY    45  44  97 N6        30.02R FOG
FRANKLIN*      CLOUDY    46  45  93 NW5       30.03R
NEW CASTLE     CLOUDY    51  48  89 NW5       30.02R
BEAVER COUNTY  CLOUDY    50  48  93 N3        30.00S FOG
BUTLER*        CLOUDY    50  46  87 W3        30.03S
PITTSBURGH INT CLOUDY    55  47  74 NW8       29.99F
PITTSBURGH     CLOUDY    55  48  77 NW6       29.98S
INDIANA*       FOG       52  52 100 NW6       30.02S VSB 3/4
LATROBE        CLOUDY    57  52  82 NW12      29.99R
WASHINGTON CO* CLOUDY    57  48  72 NW9       29.99S
$$

PAZ004>006-010>012-017>019-024>028-033>037-041-042-045-046-049>053-292100-
CENTRAL PENNSYLVANIA

CITY           SKY/WX    TMP DP  RH WIND       PRES   REMARKS
BRADFORD       LGT RAIN  45  42  89 S5        29.98S FOG
DUBOIS         FOG       47  45  93 SE5       29.98S VSB 1
CLEARFIELD     CLOUDY    47  45  93 CALM      30.00R FOG
JOHNSTOWN      CLOUDY    55  45  68 W8        29.96S
ALTOONA        CLOUDY    48  45  89 S7        30.00S
STATE COLLEGE  CLOUDY    46  43  87 E5        30.01S
WILLIAMSPORT   CLOUDY    48  40  73 SE5       30.04R HAZE
SELINSGROVE    CLOUDY    50  41  71 SE6       30.05S
FT INDIANTOWN  NOT AVBL
CAPITAL CITY   CLOUDY    50  44  80 E5        30.05R
HARRISBURG     CLOUDY    49  45  86 SE7       30.04S
YORK           CLOUDY    50  47  89 SE7       30.03F
$$

PAZ038>040-043-044-047-048-054-055-060>062-067>071-292100-
EASTERN PENNSYLVANIA

CITY           SKY/WX    TMP DP  RH WIND       PRES   REMARKS
SCRANTON       CLOUDY    52  35  52 CALM      30.03F
MOUNT POCONO   LGT RAIN  47  32  56 SE10      30.03F
ALLENTOWN      CLOUDY    50  41  71 E6        30.07S
QUAKERTOWN*    CLOUDY    48  41  76 CALM      30.07F
READING        CLOUDY    51  40  65 VRB5      30.05F
LANCASTER      CLOUDY    49  45  86 SE6       30.05F
COATESVILLE    CLOUDY    50  46  87 E12       30.05F
POTTSTOWN      CLOUDY    49  40  71 E7        30.07F
BLUE BELL      CLOUDY    46  43  87 E3        30.06F
DOYLESTOWN     LGT RAIN  47  42  83 CALM      30.06F
WILLOW GROVE   NOT AVBL
NORTH PHILA    LGT RAIN  51  44  77 E8        30.09S
PHILADELPHIA   CLOUDY    51  41  68 NE8       30.08S
$$




USA.gov is the U.S. government's official web portal to all federal, state and local government web resources and services.